Chongqing, China

7:58 AM CST on November 19, 2019 (GMT +0800)
Jiangbei

Weather History for ZUCK - October, 2019

Change the Weather History Date:

Tuesday, October 22, 2019

  Actual Average (WUND) Record (WUND)
Temperature  
Mean Temperature 63 °F -  
Max Temperature 66 °F - - (-1)
Min Temperature 60 °F - - (-1)
Degree Days  
Heating Degree Days 2    
Growing Degree Days 13 (Base 50)    
Moisture  
Dew Point 61 °F    
Average Humidity 93    
Maximum Humidity 100    
Minimum Humidity 82    
Precipitation  
Precipitation 0.63 in - - ()
Sea Level Pressure  
Sea Level Pressure 29.89 in    
Wind  
Wind Speed 3 mph ()    
Max Wind Speed 9 mph    
Max Gust Speed -    
Visibility 4.5 miles    
Events Fog , Rain    
Averages and records for this station are not official NWS values.
T = Trace of Precipitation, MM = Missing Value Source: Averaged Metar Reports

Daily Weather History Graph

Daily Weather History Graph

Search for Another Location

Airport or City:

Astronomy

Oct. 22, 2019 Rise Set
Actual Time 6:59 AM CST 6:16 PM CST
Civil Twilight 6:35 AM CST 6:40 PM CST
Nautical Twilight 6:07 AM CST 7:08 PM CST
Astronomical Twilight 5:39 AM CST 7:36 PM CST
Moon 12:11 AM CST (10/22) 2:24 PM CST (10/22)
Length of Visible Light 12h 05m
Length of Day
11h 17m
Last Quarter, 43% of the Moon is Illuminated
Oct 22
Last Quarter
Oct 28
New
Nov 4
First Quarter
Nov 12
Full
Nov 20
Last Quarter

Hourly Weather History & Observations

Time (CST) Temp. Dew Point Humidity Pressure Visibility Wind Dir Wind Speed Gust Speed Precip Events Conditions
12:00 AM 60.8 °F 60.8 °F 100% 29.89 in 6.2 mi North 6.7 mph - N/A Fog Patches of Fog
1:00 AM 62.6 °F 60.8 °F 94% 29.86 in 5.6 mi NNW 4.5 mph - N/A Rain Light Rain
2:00 AM 63 °F 62 °F 93% 29.83 in 1 mi NNE 2.2 mph - - Rain Rain
2:00 AM 62.6 °F 60.8 °F 94% 29.86 in 3.1 mi West 4.5 mph - N/A Rain Rain
3:00 AM 60.8 °F 60.8 °F 100% 29.86 in 2.8 mi NW 6.7 mph - N/A Rain Rain
4:00 AM 60.8 °F 60.8 °F 100% 29.83 in 4.3 mi Calm Calm - N/A Rain Rain
5:00 AM 63 °F 62 °F 94% 29.82 in 3 mi Calm Calm - - Rain Light Rain
5:00 AM 60.8 °F 60.8 °F 100% 29.83 in 4.3 mi Calm Calm - N/A Rain Light Rain
6:00 AM 60.8 °F 60.8 °F 100% 29.86 in 4.3 mi South 2.2 mph - N/A Fog , Rain Rain
7:00 AM 60.8 °F 60.8 °F 100% 29.86 in 1.6 mi Variable 2.2 mph - N/A Fog , Rain Light Rain
8:00 AM 63 °F 62 °F 96% 29.87 in 3 mi Calm Calm - - Rain Light Rain
8:00 AM 62.6 °F 60.8 °F 94% 29.89 in 4.3 mi Variable 2.2 mph - N/A Fog , Rain Light Rain
9:00 AM 62.6 °F 60.8 °F 94% 29.92 in 2.5 mi SSE 4.5 mph - N/A Fog , Rain Light Rain
10:00 AM 62.6 °F 60.8 °F 94% 29.92 in 3.1 mi Variable 2.2 mph - N/A Fog , Rain Light Rain
11:00 AM 64 °F 63 °F 96% 29.91 in 7 mi ENE 2.2 mph - - Rain Light Rain
11:00 AM 62.6 °F 60.8 °F 94% 29.92 in 5.0 mi West 4.5 mph - N/A Rain Light Rain
12:00 PM 64.4 °F 60.8 °F 88% 29.92 in 6.2 mi West 4.5 mph - N/A   Overcast
1:00 PM 64.4 °F 60.8 °F 88% 29.92 in 6.2 mi Variable 4.5 mph - N/A   Overcast
2:00 PM 64 °F 63 °F 94% 29.87 in - NNW 2.2 mph - - Rain Light Rain
2:00 PM 64.4 °F 60.8 °F 88% 29.89 in 6.2 mi West 4.5 mph - N/A Rain Light Rain
3:00 PM 64.4 °F 60.8 °F 88% 29.86 in 5.0 mi Variable 2.2 mph - N/A   Light Drizzle
4:00 PM 64.4 °F 60.8 °F 88% 29.89 in 6.2 mi Variable 2.2 mph - N/A   Overcast
5:00 PM 66 °F 62 °F 82% 29.85 in 9 mi Calm Calm - -   Overcast
5:00 PM 64.4 °F 62.6 °F 94% 29.89 in 6.2 mi ESE 4.5 mph - N/A   Overcast
6:00 PM 64.4 °F 60.8 °F 88% 29.89 in 6.2 mi SSE 2.2 mph - N/A   Overcast
7:00 PM 64.4 °F 60.8 °F 88% 29.92 in 6.2 mi SE 2.2 mph - N/A   Overcast
8:00 PM 64 °F 62 °F 90% 29.91 in 2 mi NW 2.2 mph - -   Mist
8:00 PM 62.6 °F 60.8 °F 94% 29.95 in 4.3 mi East 2.2 mph - N/A Rain Light Rain
9:00 PM 62.6 °F 60.8 °F 94% 29.95 in 5.6 mi ESE 4.5 mph - N/A Rain Light Rain
10:00 PM 62.6 °F 60.8 °F 94% 29.98 in 3.7 mi NNE 8.9 mph - N/A Rain Light Rain
11:00 PM 63 °F 62 °F 96% 29.96 in 1 mi Calm Calm - - Rain Light Rain
11:00 PM 62.6 °F 60.8 °F 94% 29.98 in 5.0 mi North 6.7 mph - N/A Rain Light Rain